Location: Wald
(31.7579°N, 86.6655°W)
Time: 20:33:26
(UTC+00:00)

SL-8 Rocket - Pass Details

Date: 14 July 2020
Orbit: 958 x 990 km, 82.9° (Epoch: 13 August)

Event Time Altitude Azimuth Distance (km) Brightness Sun altitude
Exits shadow 04:32:33 60° 312° (NW) 1,088 4.3 -33.3°
Drops below altitude 10° 04:37:57 10° 359° (N) 2,693 7.0 -33.7°
Sets 04:40:29 0° 2° (N) 3,642 7.9 -33.9°
